This demonstration page uses our WeatherBlox Daily Observations layout. Learn more.

Left ArrowRight Arrow

44.89941, -97.11507

Hourly Observations for August 19, 2016

Temp ( °F °C ) Dew Point ( °F °C ) Humidity (%) Winds ( mph kmh ) Pressure ( in mb ) Visibility ( mi km ) Precip ( " mm )
12:33 am 00:33 Mostly Cloudy 69 20.6 63 17.2 81 81 Calm 29.88 1012 10 16 0.00 0.00
12:53 am 00:53 Mostly Cloudy 68 20 63 17.2 84 84 NNE 3 6 29.93 1014 10 16 0.00 0.00
1:53 am 01:53 Cloudy 67 19.4 64 17.8 91 91 NW 7 11 29.94 1014 10 16 0.00 0.00
2:53 am 02:53 Cloudy with Rain 67 19.4 65 18.3 93 93 N 7 11 29.91 1013 4 6 0.07 1.78
3:06 am 03:06 Cloudy 66 18.9 65 18.3 96 96 Calm 29.91 1013 10 16 0.00 0.03
3:22 am 03:22 Partly Cloudy 66 18.9 64 17.8 93 93 ENE 3 6 29.88 1012 10 16 0.00 0.03
3:53 am 03:53 Clear 65 18.3 64 17.8 97 97 NNW 8 13 29.88 1012 8 13 0.00 0.03
4:53 am 04:53 Clear 64 17.8 61 16.1 90 90 N 15 24 29.83 1010 10 16 0.00 0.00
5:53 am 05:53 Clear 62 16.7 59 15 90 90 N 12 19 29.83 1010 10 16 0.00 0.00
6:53 am 06:53 Sunny 61 16.1 58 14.4 90 90 VRB 3 6 29.87 1012 10 16 0.00 0.00
7:53 am 07:53 Mostly Cloudy 62 16.7 57 13.9 84 84 NW 3 6 29.92 1013 10 16 0.00 0.00
8:53 am 08:53 Mostly Cloudy 63 17.2 56 13.3 78 78 N 6 9 29.93 1014 10 16 0.00 0.00
9:53 am 09:53 Cloudy 64 17.8 56 13.3 75 75 NNW 3 6 29.95 1014 10 16 0.00 0.00
10:53 am 10:53 Cloudy 65 18.3 56 13.3 73 73 NNW 7 11 29.95 1014 10 16 0.00 0.00
11:53 am 11:53 Cloudy with Light Rain 66 18.9 55 12.8 68 68 Calm 29.94 1014 10 16 0.00 0.03
12:53 pm 12:53 Mostly Cloudy 67 19.4 58 14.4 73 73 NNE 7 11 29.91 1013 10 16 0.00 0.03
1:53 pm 13:53 Mostly Cloudy 69 20.6 56 13.3 63 63 N 12 19 29.91 1013 10 16 0.00 0.00
2:53 pm 14:53 Mostly Sunny 72 22.2 54 12.2 53 53 NNE 13 20 29.90 1013 10 16 0.00 0.00
3:53 pm 15:53 Mostly Sunny 75 23.9 52 11.1 45 45 NNE 14 22 29.90 1013 10 16 0.00 0.00
4:53 pm 16:53 Mostly Sunny 74 23.3 52 11.1 46 46 NE 13 20 29.90 1013 10 16 0.00 0.00
5:53 pm 17:53 Mostly Cloudy 72 22.2 54 12.2 53 53 N 13 20 29.90 1012 10 16 0.00 0.00
6:53 pm 18:53 Mostly Cloudy 70 21.1 53 11.7 55 55 NNE 9 15 29.90 1013 10 16 0.00 0.00
7:53 pm 19:53 Cloudy 68 20 55 12.8 63 63 N 9 15 29.91 1013 10 16 0.00 0.00
8:53 pm 20:53 Cloudy 65 18.3 56 13.3 73 73 N 15 24 29.93 1013 10 16 0.00 0.00
9:53 pm 21:53 Cloudy 64 17.8 55 12.8 73 73 N 13 20 29.94 1014 10 16 0.00 0.00
10:53 pm 22:53 Cloudy 63 17.2 56 13.3 78 78 NNW 12 19 29.93 1014 10 16 0.00 0.00
11:53 pm 23:53 Cloudy 62 16.7 55 12.8 78 78 NNW 14 22 29.94 1014 10 16 0.00 0.00

Powered by AerisWeather